Flag for Austria Weather past 2 weeks in Graz, Styria, Austria

Now
68 °F

Broken clouds.


Feels Like: 68 °F
Forecast: 47 / 68 °F
Wind: 13 mph from North

Location: Graz-Thalerhof-Flughafen

Current Time: May 25, 2015 at 2:22:26 PM

Latest Report: May 25, 2015 at 1:50 PM


Visibility: N/A

Pressure: 29.86 "Hg

Humidity: 43%

Dew point: 45 °F

Location of GrazLocation

Historic Weather in Graz — Graph

°F

Graz temperature yesterday

Maximum temperature yesterday: 64 °F (at 1:20 PM)
Minimum temperature yesterday: 46 °F (at 5:50 AM)
Average temperature yesterday: 56 °F

Past Weeks' High & Low Weather Summary

 TemperatureHumidityPressure
High79 °F (May 13, 1:20 PM)100% (May 13, 9:50 PM)30.36 "Hg (May 13, 9:50 PM)
Low41 °F (May 12, 5:20 AM)29% (May 10, 3:50 PM)29.74 "Hg (May 19, 1:20 PM)
Average59 °F74%30.02 "Hg
* Reported May 10 12:20 PM — May 25 12:50 PM, Graz, Weather by CustomWeather, © 2015

Note: Actual official high and low records may vary slightly from our data, if they occured in-between our weather recording intervals... More about our weather records

Advertising

Graz weather history for previous 24 hours

 ConditionsComfort  
Time TempWeatherWind HumidityBarometerVisibility
12:50 PM
Mon, May 25
66 °FPartly sunny.10 mph49%29.86 "HgN/A
12:20 PM66 °FPartly sunny.12 mph49%29.86 "HgN/A
11:50 AM64 °FPartly sunny.12 mph52%29.86 "HgN/A
11:20 AM64 °FPartly sunny.6 mph56%29.89 "HgN/A
10:50 AM64 °FPartly sunny.8 mph56%29.89 "HgN/A
10:20 AM63 °FPartly sunny.8 mph56%29.89 "HgN/A
9:50 AM63 °FPartly sunny.8 mph56%29.89 "HgN/A
9:20 AM61 °FPartly sunny.9 mph55%29.89 "HgN/A
8:50 AM61 °FBroken clouds.6 mph59%29.89 "HgN/A
8:20 AM59 °FBroken clouds.6 mph59%29.92 "HgN/A
7:50 AM57 °FBroken clouds.6 mph67%29.92 "HgN/A
7:20 AM57 °FBroken clouds.6 mph67%29.92 "HgN/A
6:50 AM55 °FBroken clouds.5 mph67%29.92 "HgN/A
6:20 AM55 °FBroken clouds.5 mph67%29.92 "HgN/A
5:50 AM55 °FPartly cloudy.6 mph63%29.92 "HgN/A
5:20 AM55 °FPassing clouds.5 mph63%29.92 "HgN/A
4:50 AM55 °FPassing clouds.6 mph67%29.92 "HgN/A
4:20 AM55 °FPassing clouds.6 mph67%29.95 "HgN/A
3:50 AM55 °FPassing clouds.7 mph67%29.95 "HgN/A
3:20 AM55 °FPassing clouds.8 mph67%29.95 "HgN/A
2:50 AM55 °FPassing clouds.7 mph67%29.95 "HgN/A
2:20 AM55 °FPassing clouds.6 mph67%29.95 "HgN/A
1:50 AM54 °FPassing clouds.6 mph72%29.95 "HgN/A
1:20 AM55 °FPassing clouds.7 mph67%29.98 "HgN/A
12:50 AM55 °FClear.6 mph67%29.98 "Hg10 mi
12:20 AM55 °FPassing clouds.5 mph67%29.98 "HgN/A
11:50 PM
Sun, May 24
55 °FPassing clouds.8 mph67%29.98 "HgN/A
11:20 PM55 °FPassing clouds.9 mph67%29.98 "HgN/A
10:50 PM55 °FPartly cloudy.10 mph67%29.98 "HgN/A
10:20 PM57 °FPartly cloudy.9 mph67%29.98 "HgN/A
9:50 PM57 °FPartly cloudy.6 mph72%29.98 "HgN/A
9:20 PM59 °FBroken clouds.2 mph82%29.98 "HgN/A
8:50 PM59 °FBroken clouds.1 mph88%29.98 "HgN/A
8:20 PM59 °FBroken clouds.5 mph88%29.98 "HgN/A
7:50 PM59 °FBroken clouds.3 mph88%29.98 "HgN/A
7:20 PM61 °FBroken clouds.1 mph88%29.98 "HgN/A
6:50 PM61 °FBroken clouds.3 mph83%29.98 "HgN/A
6:20 PM61 °FBroken clouds.2 mph83%29.98 "HgN/A
5:50 PM59 °FBroken clouds.3 mph88%29.98 "HgN/A
5:20 PM59 °FBroken clouds.3 mph88%29.98 "HgN/A
4:50 PM59 °FBroken clouds.5 mph82%29.98 "HgN/A
4:20 PM57 °FSprinkles. Broken clouds.6 mph88%29.98 "HgN/A
3:50 PM64 °FBroken clouds.5 mph60%29.98 "HgN/A
3:20 PM64 °FBroken clouds.3 mph56%29.98 "HgN/A
2:50 PM64 °FBroken clouds.3 mph60%29.98 "HgN/A
2:20 PM63 °FBroken clouds.6 mph64%30.01 "HgN/A
Weather by CustomWeather, © 2015

See weather overviewHow to use our weather pages